• Join FlightAware (Why Join?)
  • Login
  • US Flag GB Flag 
11:15 EDT


 

Airport Tracker/Info


-or-


 

Live Flight TrackerFlight Track Log ✈ ASQ6041 ✈ 25-Apr-2013 ✈ KBHM - KORD

Flight Track Log - Related Links

Times and Time Zones

All times are in EDT time to prevent confusion due to time zone crossing. See the ASQ6041 flight status page for this flight to view local times or setup timezone preferences in your user account.

Time Position Orientation Groundspeed Altitude Reporting Facility
EDT Latitude Longitude Course Direction KTS MPH feet Rate Location/Type
07:56 33.5703 -86.7464 57° Northeast 165 190 1,200  Level Atlanta Center
07:57 33.5944 -86.7022 57° Northeast 176 203 3,000 1,620 Climbing Atlanta Center
07:57 33.6158 -86.6756 46° Northeast 218 251 3,700 1,500 Climbing Atlanta Center
07:58 33.6650 -86.6197 43° Northeast 228 262 5,400 1,800 Climbing Atlanta Center
07:59 33.7206 -86.5614 41° Northeast 247 284 7,300 1,980 Climbing Atlanta Center
08:00 33.7781 -86.4956 44° Northeast 265 305 9,400 1,500 Climbing Atlanta Center
08:01 33.8422 -86.4247 43° Northeast 283 326 10,400 900 Climbing Atlanta Center
08:02 33.9167 -86.3417 43° Northeast 320 368 11,200 960 Climbing Atlanta Center
08:03 33.9956 -86.2536 43° Northeast 357 411 12,400 1,200 Climbing Atlanta Center
08:04 34.0764 -86.1631 43° Northeast 380 437 13,700 1,320 Climbing Atlanta Center
08:05 34.1553 -86.0722 44° Northeast 392 451 15,100 1,500 Climbing Atlanta Center
08:06 34.2381 -85.9811 42° Northeast 392 451 16,700 1,320 Climbing Atlanta Center
08:07 34.3189 -85.8900 43° Northeast 392 451 17,800 1,200 Climbing Atlanta Center
08:08 34.3975 -85.8011 43° Northeast 392 451 19,100 1,200 Climbing Atlanta Center
08:09 34.4800 -85.7094 42° Northeast 392 451 20,200 900 Climbing Atlanta Center
08:10 34.5647 -85.6103 44° Northeast 403 464 21,000 360 Climbing Atlanta Center
08:11 34.6581 -85.5058 43° Northeast 419 482 21,000 420 Level Atlanta Center
08:12 34.7531 -85.3964 43° Northeast 441 507 21,900 900 Climbing Atlanta Center
08:13 34.8461 -85.2892 43° Northeast 453 521 22,900 540 Climbing Atlanta Center
08:14 34.9431 -85.1789 43° Northeast 458 527 23,000 300 Climbing Atlanta Center
08:15 35.0647 -85.1275 19° North 456 525 23,500 960 Climbing Atlanta Center
08:16 35.1858 -85.0986 11° North 440 506 25,000 1,500 Climbing Atlanta Center
08:17 35.2967 -85.0694 12° North 425 489 26,500 1,500 Climbing Atlanta Center
08:18 35.4056 -85.0428 11° North 406 467 28,000 1,500 Climbing Atlanta Center
08:19 35.5078 -85.0183 11° North 387 445 29,500 1,380 Climbing Atlanta Center
08:20 35.6061 -84.9914 13° North 366 421 30,800 1,140 Climbing Atlanta Center
08:21 35.7064 -84.9669 11° North 366 421 31,800 1,020 Climbing Atlanta Center
08:22 35.8131 -84.9375 13° North 361 415 32,900 600 Climbing Atlanta Center
08:23 35.9175 -84.9106 12° North 382 440 33,000 420 Climbing Atlanta Center
08:24 36.0428 -84.8811 11° North 398 458 33,800 360 Climbing Atlanta Center
08:26 36.2197 -84.8406 10° North 418 481 34,000 60 Climbing Indianapolis Center
08:27 36.3347 -84.8353 North 417 480 34,000  Level Indianapolis Center
08:28 36.4547 -84.8292 North 426 490 34,000  Level Indianapolis Center
08:29 36.5747 -84.8219 North 430 495 34,000  Level Indianapolis Center
08:30 36.6942 -84.8153 North 430 495 34,000  Level Indianapolis Center
08:31 36.8372 -84.8078 North 428 493 34,000  Level Indianapolis Center
08:32 36.9564 -84.8011 North 427 491 34,000  Level Indianapolis Center
08:33 37.0811 -84.7947 North 422 486 34,000  Level Indianapolis Center
08:34 37.2000 -84.7883 North 424 488 34,000  Level Indianapolis Center
08:35 37.3183 -84.7811 North 424 488 34,000  Level Indianapolis Center
08:36 37.4292 -84.8019 352° North 404 465 34,000  Level Indianapolis Center
08:37 37.5367 -84.8314 348° North 395 455 34,000  Level Indianapolis Center
08:38 37.6439 -84.8622 347° North 395 455 34,000  Level Indianapolis Center
08:39 37.7522 -84.8917 348° North 396 456 34,000  Level Indianapolis Center
08:40 37.8614 -84.9219 348° North 399 459 34,000  Level Indianapolis Center
08:41 37.9881 -84.9583 347° North 399 459 34,000  Level Indianapolis Center
08:42 38.0947 -84.9894 347° North 396 456 34,000  Level Indianapolis Center
08:43 38.2075 -85.0175 349° North 404 465 34,000  Level Indianapolis Center
08:45 38.3153 -85.0472 348° North 396 456 34,000  Level Indianapolis Center
08:46 38.4222 -85.0781 347° North 395 455 34,000  Level Indianapolis Center
08:47 38.5286 -85.1086 347° North 392 451 34,000 -60 Level Indianapolis Center
08:48 38.6461 -85.1422 347° North 393 452 33,900 -480 Descending Indianapolis Center
08:49 38.7572 -85.1731 348° North 404 465 33,100 -780 Descending Indianapolis Center
08:50 38.8689 -85.2058 347° North 408 470 32,400 -900 Descending Indianapolis Center
08:51 38.9814 -85.2364 348° North 411 473 31,300 -1,020 Descending Indianapolis Center
08:52 39.0908 -85.2683 347° North 403 464 30,400 -660 Descending Indianapolis Center
08:53 39.2247 -85.3081 347° North 419 482 30,000 -240 Descending Indianapolis Center
08:54 39.3406 -85.3408 348° North 423 487 30,000  Level Indianapolis Center
08:55 39.4581 -85.3747 347° North 429 494 30,000 -120 Level Indianapolis Center
08:56 39.5747 -85.4083 347° North 430 495 29,800 -540 Descending Indianapolis Center
08:57 39.6914 -85.4422 347° North 428 493 28,900 -960 Descending Indianapolis Center
08:58 39.8078 -85.4761 347° North 427 491 27,900 -1,080 Descending Indianapolis Center
08:59 39.9411 -85.5156 347° North 422 486 26,700 -960 Descending Indianapolis Center
09:00 40.0572 -85.5497 347° North 425 489 26,000 -360 Descending Indianapolis Center
09:01 40.1758 -85.5831 348° North 433 498 26,000 -480 Level Chicago Center
09:02 40.2892 -85.6178 347° North 418 481 25,100 -960 Descending Chicago Center
09:03 40.3989 -85.6500 347° North 407 468 24,100 -540 Descending Chicago Center
09:04 40.5097 -85.6831 347° North 407 468 24,000 -420 Descending Chicago Center
09:05 40.6144 -85.7250 343° North 394 453 23,300 -900 Descending Chicago Center
09:06 40.7244 -85.7683 343° North 375 432 22,200 -1,080 Descending Chicago Center
09:07 40.8153 -85.8081 342° North 350 403 21,200 -960 Descending Chicago Center
09:08 40.9039 -85.8514 340° North 340 391 20,300 -600 Descending Chicago Center
09:09 40.9925 -85.8933 340° North 339 390 20,000 -180 Descending Chicago Center
09:10 41.0831 -85.9375 340° North 344 396 20,000  Level Chicago Center
09:11 41.1717 -85.9808 340° North 341 392 20,000  Level Chicago Center
09:12 41.2506 -86.0308 335° Northwest 320 368 20,000  Level Chicago Center
09:13 41.3117 -86.1414 306° West 308 354 20,000  Level Chicago Center
09:14 41.3614 -86.2342 306° West 307 353 20,000  Level Chicago Center
09:15 41.4131 -86.3331 305° West 321 369 20,000 -720 Level Chicago Center
09:16 41.4669 -86.4339 306° West 332 382 18,600 -1,560 Descending Chicago Center
09:17 41.5178 -86.5308 305° West 321 369 16,800 -1,800 Descending Chicago Center
09:18 41.5689 -86.6267 306° West 318 366 14,900 -1,920 Descending Chicago Center
09:19 41.6247 -86.7322 305° West 317 365 12,900 -1,380 Descending Chicago Center
09:21 41.6814 -86.7964 320° Northwest 279 321 12,100 -480 Descending Chicago Center
09:22 41.7489 -86.8056 354° North 248 285 12,000 -60 Descending Chicago Center
09:23 41.8294 -86.8219 351° North 244 281 12,000 -420 Level Chicago Center
09:24 41.8867 -86.8533 338° Northwest 229 264 11,200 -840 Descending Chicago Center
09:25 41.9300 -86.9028 320° Northwest 208 239 10,300 -900 Descending Chicago Center
09:26 41.9686 -86.9464 320° Northwest 187 215 9,400 -660 Descending Chicago Center
09:27 41.9739 -86.9997 278° West 181 208 9,000 -240 Descending Chicago Center
09:28 41.9686 -87.0606 263° West 172 198 9,000 -480 Level Chicago Center
09:29 41.9678 -87.1356 269° West 170 196 8,100 -960 Descending Chicago Center
09:30 41.9683 -87.1936 271° West 159 183 7,100 -840 Descending Chicago Center
09:31 41.9592 -87.2475 257° West 152 175 6,400 -540 Descending Chicago Center
09:32 41.9397 -87.2961 242° Southwest 158 182 6,000 -660 Descending Chicago Center
09:33 41.9611 -87.3469 300° West 157 181 5,100 -540 Descending Chicago Center
09:34 41.9667 -87.4000 278° West 143 165 5,100 -60 Level Chicago TRACON
09:35 41.9667 -87.4500 270° West 143 165 5,000  Descending Chicago TRACON
09:36 41.9667 -87.5000 270° West 143 165 5,100  Climbing Chicago TRACON
09:37 41.9667 -87.5500 270° West 141 162 5,100 -180 Level Chicago TRACON
09:38 41.9667 -87.6167 270° West 140 161 4,800 -600 Descending Chicago TRACON
09:39 41.9667 -87.6667 270° West 141 162 4,000 -840 Descending Chicago TRACON
09:40 41.9667 -87.7167 270° West 146 168 3,200 -840 Descending Chicago TRACON
09:41 41.9667 -87.7667 270° West 149 171 2,400 -780 Descending Chicago TRACON
09:42 41.9667 -87.8167 270° West 124 143 1,700 -720 Descending Chicago TRACON
09:43 41.9667 -87.8667 270° West 122 140 1,000 -720 Descending Chicago TRACON
09:45 41.9667 -87.9000 270° West  Level FlightAware Approximate